www.pogodaiklimat.ru

Погода и климат >> Архив погоды >> Бельгия >> Сент-Губерт


ПОГОДА в Сент-Губерте

  • Прогноз погоды в Сент-Губерте
  • Монитор погоды в Сент-Губерте

АРХИВ ПОГОДЫ в Сент-Губерте

Время (UTC), дата Ветер
(напр.,м/с)
 
Видим.   Явления Облачность Т
(С)
Тd
(С)
f
(%)
Тe
(С)
Тes
(С)
Комфортность P
(гПа)
Po
(гПа)
Тmin
(С)
Tmax
(С)
R
(мм)
R24
(мм)
S
(см)
04 14.09 СВ 5
{6}
н/о ясно +9.6 +8.8 95 +6 +6 1033.4 966.9
05 14.09 СВ 4
{6}
н/о ясно +9.4 +8.6 95 +6 +6 1033.7 967.0
06 14.09 В 3
{6}
н/о ясно +10.2 +9.0 92 +8 +8 1033.7 967.3 +9.0
07 14.09 В 4
{6}
15 км ясно +12.3 +10.6 89 +10 +11 1032.9 967.0
08 14.09 В 3
{6}
25 км ясно +13.9 +11.1 83 +13 +16 1032.7 967.2
09 14.09 В 4
{7}
35 км ясно +15.6 +10.4 71 +15 +19 1032.3 967.1
10 14.09 В 3
{6}
30 км ясно +16.8 +10.5 66 +17 +23 1032.0 967.1
11 14.09 нст 1
{5}
40 км ясно +18.4 +10.5 60 +20 +31 1031.0 966.6
12 14.09 В 2
{7}
30 км ясно +18.7 +9.7 56 +20 +29 1030.3 966.0
13 14.09 нст 2
{5}
30 км ясно +19.5 +9.1 51 +21 +30 комфорт 1029.7 965.5
14 14.09 С 2
{5}
40 км ясно +19.9 +7.6 45 +21 +28 комфорт 1029.2 965.1
15 14.09 В 2
{5}
35 км ясно +20.1 +9.6 51 +22 +26 комфорт 1028.6 964.6
16 14.09 В 2
{4}
40 км ясно +19.7 +9.6 52 +21 +23 комфорт 1028.0 963.9
17 14.09 СВ 2
{4}
40 км ясно +19.1 +10.6 58 +21 +21 комфорт 1028.0 963.8
18 14.09 СВ 3
{5}
45 км ясно +16.3 +10.5 69 +16 +16 1028.6 963.9 +20.8
19 14.09 СВ 3
{5}
45 км ясно +13.9 +10.1 78 +13 +13 1029.3 963.9
20 14.09 В 3
{4}
45 км ясно +12.2 +9.6 84 +11 +11 1029.1 963.4
21 14.09 В 2
{5}
45 км ясно +13.4 +9.0 75 +13 +13 1028.6 963.2
22 14.09 СВ 4
{4}
45 км ясно +11.4 +9.4 88 +9 +9 1029.0 963.1
23 14.09 В 4
{6}
45 км ясно +13.1 +8.3 73 +11 +11 1027.9 962.5
00 15.09 ЮВ 4
{6}
45 км ясно +14.3 +7.8 65 +13 +13 1027.1 962.0
01 15.09 ЮВ 3
{6}
40 км ясно +12.7 +8.5 76 +11 +11 1027.1 961.6
02 15.09 ЮВ 2
{4}
45 км ясно +12.9 +9.2 78 +12 +12 1026.8 961.4
03 15.09 Ю 2
{6}
40 км ясно +12.1 +9.2 82 +11 +11 1026.5 960.9
04 15.09 штиль 0
{4}
35 км ясно +13.4 +10.3 81 +13 +13 1025.9 960.7
05 15.09 З 1
{3}
30 км ясно +12.2 +10.1 87 +12 +12 1026.3 960.7
06 15.09 З 1
{6}
25 км ясно +12.3 +9.7 84 +12 +12 1026.2 960.7 +10.0
07 15.09 З 1
{2}
27 км ясно +14.9 +11.4 80 +15 +17 1025.6 960.8
08 15.09 З 2
{2}
5000 м дымка ясно +16.3 +11.7 74 +16 +20 1025.2 960.7
09 15.09 СЗ 2
{4}
35 км ясно +17.4 +9.9 61 +18 +24 1025.0 960.7
10 15.09 ЮЗ 2
{4}
35 км ясно +18.3 +10.1 59 +19 +27 1024.7 960.6
11 15.09 ЮЗ 2
{6}
30 км ясно +19.5 +10.2 55 +21 +31 комфорт 1024.4 960.6
12 15.09 нст 2
{6}
45 км ясно +20.4 +8.3 46 +22 +32 комфорт 1024.0 960.4
13 15.09 нст 3
{6}
35 км ясно +21.2 +11.8 55 +23 +30 комфорт 1023.3 959.9
14 15.09 нст 2
{6}
35 км ясно +21.5 +9.7 47 +23 +30 комфорт 1022.7 959.3
15 15.09 нст 1
{6}
30 км ясно +21.5 +9.0 45 +23 +28 комфорт 1022.0 958.7
16 15.09 СЗ 3
{5}
40 км ясно +21.6 +7.7 41 +23 +24 комфорт 1021.7 958.4
17 15.09 СЗ 3
{5}
40 км ясно +20.6 +6.9 41 +22 +22 комфорт 1021.8 958.3
18 15.09 С 1
{6}
45 км ясно +19.2 +5.1 39 +21 +21 комфорт 1022.1 958.2 +21.9
19 15.09 С 3
{5}
45 км ясно +17.5 +5.5 45 +18 +18 1022.8 958.5
20 15.09 СВ 2
{5}
40 км ясно +13.0 +7.4 69 +12 +12 1023.9 958.6
21 15.09 СВ 3
{5}
45 км ясно +13.3 +7.6 68 +12 +12 1023.8 958.6
22 15.09 СВ 2
{3}
45 км ясно +13.1 +6.9 66 +13 +13 1023.6 958.4
23 15.09 СВ 2
{3}
40 км ясно +12.6 +7.0 69 +12 +12 1023.6 958.2
00 16.09 СВ 3
{5}
40 км ясно +11.3 +6.8 74 +10 +10 1023.4 957.8
01 16.09 СВ 2
{4}
30 км ясно +13.5 +5.3 58 +13 +13 1022.6 957.5
02 16.09 СВ 2
{3}
30 км ясно 957.1
03 16.09 В 1
{4}
30 км ясно +11.2 +6.8 74 +11 +11 1022.6 957.0
04 16.09 СВ 1
{2}
30 км ясно +11.7 +7.1 73 +12 +12 1021.9 956.5
05 16.09 Ю 2
{2}
30 км ясно +11.5 +6.2 70 +11 +11 1021.8 956.3
06 16.09 Ю 1
{4}
24 км ясно +12.4 +7.0 70 +13 +13 1021.7 956.4 +10.1
07 16.09 ЮЗ 1
{2}
25 км ясно +14.6 +8.5 67 +15 +17 1021.3 956.5
08 16.09 Ю 1
{2}
24 км ясно +15.5 +8.4 63 +16 +20 1021.1 956.6
09 16.09 ЮЗ 2
{3}
22 км ясно +16.0 +9.7 66 +16 +22 1021.4 957.0
10 16.09 З 2
{4}
18 км ясно +17.1 +9.6 61 +17 +25 1020.8 956.7
11 16.09 ЮЗ 3
{5}
30 км ясно +18.5 +8.6 52 +19 +27 1020.5 956.7
12 16.09 ЮЗ 3
{5}
40 км ясно +19.6 +9.3 51 +21 +29 комфорт 1019.8 956.2
13 16.09 СЗ 4
{6}
30 км ясно +18.6 +10.0 57 +19 +25 1019.7 956.0
14 16.09 СЗ 4
{6}
35 км ясно +18.5 +9.4 55 +19 +23 1019.6 955.8
15 16.09 СЗ 3
{6}
40 км 10/0 2000 м
[]
+18.1 +10.1 60 +18 +20 1019.5 955.7
16 16.09 СЗ 5
{7}
45 км 10/0 2000 м
[]
+17.3 +11.2 67 +17 +17 1019.6 955.6
17 16.09 СЗ 4
{7}
30 км 10/10 1500 м
[]
+16.3 +12.1 76 +16 +16 1019.9 955.7
18 16.09 СЗ 4
{7}
28 км 10/10 480 м
[]
+15.8 +12.5 81 +15 +15 1020.0 955.7 +19.6
19 16.09 С 4
{7}
3000 м слаб. морось {дождь} 10/10 60 м
[]
+14.3 +13.4 94 +13 +13 1020.5 955.9
20 16.09 С 2
{6}
3300 м морось {дождь} 10/10 90 м
[]
+13.8 +12.6 92 +13 +13 1020.8 956.0
21 16.09 С 3
{7}
2400 м слаб. морось {дождь} 10/10 60 м
[]
+13.1 +12.1 94 +12 +12 1021.0 956.1
22 16.09 С 3
{6}
3000 м дымка {дождь} 10/10 60 м
[]
+12.8 +11.9 94 +11 +11 1021.3 956.3
23 16.09 СВ 3
{5}
3900 м дымка {дождь} 10/10 60 м
[]
+12.4 +11.5 94 +11 +11 1021.3 956.2
00 17.09 СВ 3
{7}
12 км {морось, дымка} 10/10 420 м
[]
+11.5 +10.2 92 +10 +10 1021.6 956.2
01 17.09 СВ 4
{6}
14 км 10/10 540 м
[]
+11.4 +10.2 92 +9 +9 1021.5 956.1
02 17.09 СВ 2
{5}
н/о 10/10 540 м
[]
+11.1 +10.1 94 +10 +10 1021.3 955.8
03 17.09 СВ 2
{6}
н/о 10/10 330 м
[]
+11.0 +10.1 94 +10 +10 1021.2 955.7
04 17.09 С 1
{3}
5000 м дымка 10/10 150 м
[]
+10.8 +9.6 92 +10 +10 1021.4 955.8
05 17.09 С 2
{7}
н/о 10/10 150 м
[]
+10.3 +9.1 92 +9 +9 1021.6 955.9
06 17.09 С 2
{7}
14 км 10/10 330 м
[]
+10.0 +8.7 92 +8 +8 1022.2 956.4 +10.0
07 17.09 С 2
{4}
н/о 10/10 330 м
[]
+10.1 +8.6 90 +9 +9 1022.5 956.7
08 17.09 С 2
{4}
н/о 5/5 570 м
[]
+11.2 +8.4 83 +10 +12 1022.6 957.1
09 17.09 С 3
{6}
20 км 10/10 420 м
[]
+12.1 +8.2 77 +11 +11 1022.7 957.3
10 17.09 СЗ 3
{8}
21 км 10/10 630 м
[]
+12.5 +7.7 73 +11 +11 1022.7 957.4
11 17.09 С 5
{8}
27 км 1/1 630 м
[]
+13.5 +6.2 61 +12 +16 1022.4 957.3
12 17.09 СЗ 4
{8}
28 км 1/1 800 м
[]
+14.5 +6.8 60 +13 +19 1022.2 957.3
13 17.09 СЗ 5
{9}
28 км ясно +14.6 +6.3 57 +13 +17 1021.9 957.1
14 17.09 СЗ 5
{9}
30 км 3/3 1020 м
[]
+15.5 +6.7 56 +14 +17 1021.7 957.2
15 17.09 С 5
{9}
29 км 8/8 1000 м
[]
+14.9 +6.4 57 +14 +14 1022.0 957.3
16 17.09 С 5
{8}
30 км ясно +14.5 +6.4 58 +13 +14 1022.2 957.4
17 17.09 С 3
{8}
35 км ясно +13.1 +6.8 66 +12 +12 1022.5 957.4
18 17.09 С 3
{9}
29 км ясно +11.9 +6.5 69 +10 +10 1022.7 957.3 +15.6
19 17.09 С 3
{7}
30 км ясно +10.7 +6.8 77 +9 +9 1023.8 958.0
20 17.09 С 4
{7}
35 км ясно +9.7 +5.9 77 +7 +7 1024.3 958.2
21 17.09 С 5
{9}
28 км 1/1 700 м
[]
+8.8 +5.7 81 +5 +5 1024.9 958.6
22 17.09 С 6
{9}
22 км ясно +8.0 +4.9 81 +4 +4 1025.4 958.9
23 17.09 СВ 4
{8}
23 км ясно +7.2 +4.3 82 +4 +4 1025.8 959.1
00 18.09 СВ 3
{9}
21 км ясно +6.2 +4.0 86 +3 +3 1026.5 959.5
01 18.09 В 3
{4}
16 км ясно +4.4 +3.3 93 +1 +1 1026.8 959.4
02 18.09 В 2
{5}
15 км ясно +3.9 +2.8 93 +1 +1 1027.0 959.5
03 18.09 СВ 2
{5}
15 км ясно +4.5 +3.2 91 +2 +2 1026.8 959.4
04 18.09 СВ 3
{5}
13 км ясно +4.2 +3.0 92 0 0 1026.9 959.4
05 18.09 СВ 3
{5}
13 км ясно +3.9 +2.9 93 0 0 1027.3 959.7
06 18.09 СВ 3
{5}
13 км ясно +4.3 +3.1 92 +1 +1 1027.4 959.9 +3.0
07 18.09 СВ 3
{5}
15 км ясно +6.0 +4.3 89 +3 +4 1027.6 960.5
08 18.09 СВ 4
{6}
17 км ясно +8.2 +5.2 81 +5 +7 1027.8 961.2
09 18.09 СВ 5
{8}
24 км 1/1 660 м
[]
+10.0 +4.6 69 +7 +10 1027.6 961.4
10 18.09 СВ 6
{9}
26 км ясно +11.0 +3.4 59 +8 +11 1027.5 961.5
11 18.09 СВ 4
{9}
26 км ясно +11.3 +3.5 59 +9 +15 1027.4 961.5
12 18.09 СВ 4
{9}
26 км ясно +12.3 +3.7 56 +11 +17 1026.9 961.3
13 18.09 СВ 4
{9}
30 км 3/3 1080 м
[]
+12.7 +3.3 53 +11 +15 1026.5 960.9
14 18.09 СВ 5
{8}
29 км ясно +13.2 +3.3 51 +11 +15 1026.3 960.8
15 18.09 С 5
{9}
26 км ясно +13.2 +3.1 50 +11 +13 1026.1 960.7
16 18.09 СВ 5
{9}
30 км ясно +12.6 +1.9 48 +11 +11 1026.2 960.6
17 18.09 С 4
{8}
30 км ясно +11.8 +2.8 54 +10 +10 1026.6 960.8
18 18.09 СВ 3
{9}
35 км ясно +10.2 +3.3 62 +8 +8 1027.1 961.0 +13.8
19 18.09 СВ 2
{4}
40 км ясно +7.3 +3.3 76 +5 +5 1028.4 961.5
20 18.09 СВ 2
{3}
35 км ясно +8.2 +3.1 70 +6 +6 1028.2 961.5
21 18.09 СВ 3
{4}
35 км ясно +8.0 +3.5 73 +5 +5 1028.4 961.7
22 18.09 СВ 3
{4}
40 км ясно +7.2 +3.9 80 +4 +4 1029.0 962.1
23 18.09 СВ 3
{4}
30 км ясно +6.3 +3.7 83 +3 +3 1029.4 962.2
00 19.09 СВ 3
{4}
30 км ясно +4.5 +3.3 92 +1 +1 1030.0 962.4
01 19.09 СВ 3
{4}
30 км ясно +3.9 +2.8 93 0 0 1030.2 962.4
02 19.09 СВ 3
{4}
22 км ясно +4.3 +3.3 93 +1 +1 1029.9 962.2
03 19.09 СВ 3
{5}
19 км ясно +4.8 +3.5 91 +1 +1 1029.8 962.3
04 19.09 СВ 3
{5}
12 км ясно +4.2 +3.1 93 0 0 1029.6 962.0
05 19.09 СВ 3
{4}
10 км ясно +4.3 +3.4 94 0 0 1030.1 962.4
06 19.09 СВ 3
{5}
н/о ясно +4.2 +3.3 94 0 0 1030.5 962.8 +3.2
07 19.09 СВ 3
{5}
15 км ясно +5.7 +4.1 89 +2 +3 1030.7 963.3
08 19.09 СВ 4
{7}
27 км ясно +7.5 +4.4 81 +4 +6 1030.9 964.0
09 19.09 В 6
{11}
29 км ясно +8.9 +3.3 68 +5 +7 1030.9 964.2
10 19.09 СВ 5
{11}
35 км 8/8 720 м
[]
+10.2 +3.4 63 +7 +8 1030.9 964.5
11 19.09 СВ 5
{9}
35 км ясно +11.9 +3.4 56 +10 +14 1030.3 964.3
12 19.09 СВ 5
{11}
35 км ясно +12.2 +2.4 51 +10 +15 1029.8 963.9
13 19.09 СВ 5
{8}
30 км ясно +13.2 +1.7 46 +11 +16 1029.4 963.7
14 19.09 СВ 4
{8}
35 км ясно +13.5 +1.7 45 +12 +16 1029.0 963.4
15 19.09 С 4
{8}
35 км ясно +13.8 +2.3 46 +13 +15 1028.7 963.3
16 19.09 С 5
{10}
30 км ясно +13.0 +2.2 48 +11 +12 1028.8 963.1
17 19.09 СВ 4
{8}
40 км ясно +12.2 +2.3 51 +11 +11 1028.8 963.0
18 19.09 СВ 3
{10}
45 км ясно +9.4 +3.5 67 +7 +7 1029.7 963.2 +14.2
19 19.09 СВ 3
{4}
45 км ясно +8.4 +2.9 68 +6 +6 1030.3 963.5
20 19.09 СВ 3
{5}
40 км ясно +7.4 +2.4 71 +5 +5 1030.7 963.7
21 19.09 СВ 3
{6}
45 км ясно +6.6 +2.8 77 +4 +4 1031.0 963.8
22 19.09 СВ 3
{6}
35 км ясно +6.5 +2.5 76 +4 +4 1030.9 963.7
23 19.09 В 5
{7}
35 км ясно +6.2 +2.5 77 +2 +2 1030.7 963.4
00 20.09 В 5
{8}
40 км ясно +6.2 +2.3 76 +2 +2 1030.5 963.2
01 20.09 В 5
{8}
45 км ясно +5.7 +1.8 76 +1 +1 1030.3 962.9
02 20.09 В 5
{7}
40 км ясно +4.8 +1.8 81 0 0 1030.1 962.5
03 20.09 В 5
{8}
40 км ясно +5.1 +1.4 77 +1 +1 1029.7 962.2
04 20.09 В 4
{7}
40 км ясно +4.7 +1.2 78 +1 +1 1029.6 962.0
05 20.09 В 4
{7}
40 км ясно +5.4 +1.0 73 +2 +2 1029.2 961.8
06 20.09 В 4
{8}
45 км ясно +5.7 +0.7 70 +2 +2 1029.4 962.0 +4.0
07 20.09 В 5
{7}
40 км ясно +7.7 +1.6 65 +4 +5 1028.9 962.1
08 20.09 В 5
{8}
27 км ясно +9.9 +2.0 58 +7 +9 1028.8 962.4
09 20.09 В 6
{10}
40 км ясно +11.5 +2.4 54 +9 +11 1028.4 962.4
10 20.09 В 6
{10}
35 км ясно +12.9 +1.5 46 +11 +14 1027.7 962.1
11 20.09 В 5
{9}
35 км ясно +14.3 +1.8 43 +13 +17 1026.9 961.6
12 20.09 В 5
{10}
35 км ясно +15.6 -0.9 32 +15 +19 1026.0 961.1
14 20.09 В 5
{9}
35 км ясно +17.2 +0.9 33 +17 +20 1024.7 960.2
15 20.09 В 4
{10}
35 км ясно +16.2 +1.7 38 +16 +18 1024.3 959.6
16 20.09 В 4
{8}
45 км ясно +16.1 +1.5 37 +16 +17 1023.9 959.2
17 20.09 В 4
{8}
40 км ясно +15.1 +2.0 41 +14 +14 1023.8 958.9
18 20.09 В 5
{10}
45 км ясно +13.1 +2.1 47 +11 +11 1023.8 958.5 +17.5
19 20.09 В 6
{10}
45 км ясно +12.5 +1.1 46 +10 +10 1023.6 958.2
21 20.09 В 6
{11}
45 км ясно +11.0 +0.1 47 +8 +8 1023.1 957.3
22 20.09 В 7
{10}
45 км ясно +10.3 +0.7 51 +7 +7 1022.9 957.0
23 20.09 В 7
{11}
45 км ясно +10.5 +1.1 52 +7 +7 1021.9 956.2
00 21.09 ЮВ 6
{11}
45 км ясно +10.0 +0.8 53 +7 +7 1021.7 955.9
02 21.09 В 7
{11}
45 км ясно +9.8 +1.0 54 +6 +6 1020.8 955.0
03 21.09 В 8
{12}
45 км ясно +9.6 +0.9 55 +6 +6 1020.3 954.5
04 21.09 В 7
{13}
45 км ясно +9.6 0.0 51 +6 +6 1020.2 954.3

 

Местоположение метеостанции Сент-Губерт (Бельгия): широта 50.03 долгота 5.40 высота над уровнем моря 557 м.

В архиве по умолчанию представлена погода в Сент-Губерте за последнюю неделю. Архивные данные за месяц целиком и за предыдущие месяцы, начиная с января 2011 года, Вы можете получить, выбрав интересующий диапазон дат из раскрывающегося списка и нажав кнопку "Ввод!".


*Определитесь, кто Вы:
робот инопланетянин человек

Внимание! Время в таблицах - всемирное. Для получения местного времени необходимо прибавить поправку, которая равна 1 ч.

Смотрите также архив погоды в соседних городах и на ближайших метеорологических станциях:

Погода в Гумане (Бельгия) (22 км)
Погода в Бюзеноле (Бельгия) (47 км)
Погода в Дурбе (Бельгия) (58 км)
Погода во Флорене (Бельгия) (58 км)
Погода в Чарвилле (Франция) (62 км)
Погода в Спа (Бельгия) (62 км)
Погода в Бьерсете (Бельгия) (69 км)
Погода на Монт-Риги (Бельгия) (72 км)
Погода в Люксембурге (Люксембург) (73 км)
Погода в Элзенборне (Бельгия) (74 км)

Пояснения к столбцам:

Ветер - указаны скорость ветра в м/с - средняя за 10 мин, порывы в срок и между сроками (в фигурных скобках) и направление, откуда дует ветер: С - северный, СВ - северо-восточный, В - восточный, ЮВ - юго-восточный, Ю - южный, ЮЗ - юго-западный, З - западный, СЗ - северо-западный.
Видимость - горизонтальная дальность видимости в метрах или километрах. При видимости от 1 до 10 км при отсутствии осадков обычно наблюдается дымка, при ухудшении видимости до 1 км и менее - туман. В сухую погоду видимость может ухудшаться дымом, пылью или мглою.
Явления - указаны атмосферные явления, наблюдавшиеся в срок или в последний час перед сроком; фигурными скобками обозначены явления, наблюдавшиеся между сроками (за 1-3 часа до срока); квадратными скобками обозначены град или гололедные отложения с указанием их диаметра в мм.
Облачность - указаны через наклонную черту общая и нижняя облачность в баллах и высота нижней границы облаков в метрах; квадратными скобками обозначены формы облаков: Ci - перистые, Cs - перисто-слоистые, Cc - перисто-кучевые, Ac - высококучевые, As - высокослоистые, Sc - слоисто-кучевые, Ns - слоисто-дождевые, Cu - кучевые, Cb - кучево-дождевые. Подробнее классификацию облаков см. в Атласе облаков (PDF).
T - Температура воздуха - температура, измеренная на высоте 2 м над землей.
Td - Температура точки росы - температура, при понижении до которой содержащийся в воздухе водяной пар достигнет насыщения.
f - Относительная влажность воздуха - влажноcть воздуха, измеренная на высоте 2 м над землей.
Te - Эффективная температура - температура, которую ощущает одетый по сезону человек в тени. Характеристика душности погоды. При расчете учитывается влияние влажности воздуха и скорости ветра на теплоощущения человека.
Tes - Эффективная температура на солнце - температура, которую ощущает человек, с поправкой на солнечный нагрев. Характеристика знойности погоды. Зависит от высоты солнца над горизонтом, облачности и скорости ветра. Ночью, в пасмурную погоду, а также при ветре 12 м/с и более поправка равна нулю.
P - Атмосферное давление - приведенное к уровню моря атмосферное давление.
Po - Атмосферное давление - измеренное на уровне метеостанции атмосферное давление.
Tmin - Минимальная температура - минимум температуры воздуха на высоте 2 м над землей.
Tmax - Максимальная температура - максимум температуры воздуха на высоте 2 м над землей.
R - Количество осадков - Количество выпавших осадков за период времени, мм. При наведении курсора мыши на число - период времени, за который выпало указанное количество осадков.
R24 - Количество осадков - Количество выпавших осадков за 24 часа, мм.
S - Снежный покров - Высота снежного покрова, см. При наведении курсора мыши на число - состояние снежного покрова и степень покрытия местности в баллах.